Time,TemperatureF,DewpointF,PressureIn,WindDirection,WindDirectionDegrees,WindSpeedMPH,WindSpeedGustMPH,Humidity,HourlyPrecipIn,Conditions,Clouds,dailyrainin,SoftwareType,DateUTC
2013-11-22 00:07:00,37.6,33.8,23.73,North,-999,-999.0,-999.0,86,-99.99,,,-99.99,Acu-Link.com,2013-11-22 08:07:00,
2013-11-22 00:22:00,37.6,34.1,23.72,North,-999,-999.0,-999.0,87,-99.99,,,-99.99,Acu-Link.com,2013-11-22 08:22:00,
2013-11-22 00:38:00,37.6,34.1,23.72,North,-999,-999.0,-999.0,87,-99.99,,,-99.99,Acu-Link.com,2013-11-22 08:38:00,
2013-11-22 00:53:00,37.8,34.5,23.72,North,-999,-999.0,-999.0,88,-99.99,,,-99.99,Acu-Link.com,2013-11-22 08:53:00,
2013-11-22 01:08:00,37.6,34.6,23.72,North,-999,-999.0,-999.0,89,-99.99,,,-99.99,Acu-Link.com,2013-11-22 09:08:00,
2013-11-22 01:23:00,37.6,34.6,23.72,North,-999,-999.0,-999.0,89,-99.99,,,-99.99,Acu-Link.com,2013-11-22 09:23:00,
2013-11-22 01:38:00,37.4,34.7,23.71,North,-999,-999.0,-999.0,90,-99.99,,,-99.99,Acu-Link.com,2013-11-22 09:38:00,
2013-11-22 01:53:00,37.6,34.9,23.71,North,-999,-999.0,-999.0,90,-99.99,,,-99.99,Acu-Link.com,2013-11-22 09:53:00,
2013-11-22 02:09:00,37.6,34.9,23.72,North,-999,-999.0,-999.0,90,-99.99,,,-99.99,Acu-Link.com,2013-11-22 10:09:00,
2013-11-22 02:24:00,37.6,35.2,23.73,North,-999,-999.0,-999.0,91,-99.99,,,-99.99,Acu-Link.com,2013-11-22 10:24:00,
2013-11-22 02:39:00,37.6,35.2,23.71,North,-999,-999.0,-999.0,91,-99.99,,,-99.99,Acu-Link.com,2013-11-22 10:39:00,
2013-11-22 02:54:00,37.4,35.0,23.71,North,-999,-999.0,-999.0,91,-99.99,,,-99.99,Acu-Link.com,2013-11-22 10:54:00,
2013-11-22 03:09:00,37.0,34.7,23.71,North,-999,-999.0,-999.0,91,-99.99,,,-99.99,Acu-Link.com,2013-11-22 11:09:00,
2013-11-22 03:24:00,36.7,34.3,23.71,North,-999,-999.0,-999.0,91,-99.99,,,-99.99,Acu-Link.com,2013-11-22 11:24:00,
2013-11-22 03:40:00,36.5,34.1,23.71,North,-999,-999.0,-999.0,91,-99.99,,,-99.99,Acu-Link.com,2013-11-22 11:40:00,
2013-11-22 05:38:00,35.1,32.4,23.72,North,-999,-999.0,-999.0,90,-99.99,,,-99.99,Acu-Link.com,2013-11-22 13:38:00,
2013-11-22 07:32:00,34.3,31.7,23.75,North,-999,-999.0,-999.0,90,-99.99,,,-99.99,Acu-Link.com,2013-11-22 15:32:00,
2013-11-22 07:48:00,37.2,-54.8,23.75,WSW,247,0.0,-999.0,1,-99.99,,,0.02,Acu-Link.com,2013-11-22 15:48:00,
2013-11-22 08:03:00,37.0,-55.0,23.75,SW,225,3.7,-999.0,1,-99.99,,,0.02,Acu-Link.com,2013-11-22 16:03:00,
2013-11-22 08:18:00,37.0,-55.0,23.75,SW,225,0.0,-999.0,1,-99.99,,,0.02,Acu-Link.com,2013-11-22 16:18:00,
2013-11-22 08:33:00,36.7,-55.1,23.76,South,180,5.3,-999.0,1,-99.99,,,0.02,Acu-Link.com,2013-11-22 16:33:00,
2013-11-22 08:48:00,36.7,-55.1,23.76,SSE,157,0.0,-999.0,1,-99.99,,,0.02,Acu-Link.com,2013-11-22 16:48:00,
2013-11-22 09:03:00,37.0,-55.0,23.76,SSE,157,0.0,-999.0,1,-99.99,,,0.02,Acu-Link.com,2013-11-22 17:03:00,
2013-11-22 09:20:00,34.2,31.0,23.76,North,-999,-999.0,-999.0,88,-99.99,,,-99.99,Acu-Link.com,2013-11-22 17:20:00,
2013-11-22 09:36:00,34.2,30.7,23.77,North,-999,-999.0,-999.0,87,-99.99,,,-99.99,Acu-Link.com,2013-11-22 17:36:00,
2013-11-22 09:52:00,34.0,30.2,23.77,North,-999,-999.0,-999.0,86,-99.99,,,-99.99,Acu-Link.com,2013-11-22 17:52:00,
2013-11-22 10:08:00,34.0,30.2,23.77,North,-999,-999.0,-999.0,86,-99.99,,,-99.99,Acu-Link.com,2013-11-22 18:08:00,
2013-11-22 10:24:00,33.8,29.8,23.76,North,-999,-999.0,-999.0,85,-99.99,,,-99.99,Acu-Link.com,2013-11-22 18:24:00,
2013-11-22 10:40:00,33.6,29.6,23.76,North,-999,-999.0,-999.0,85,-99.99,,,-99.99,Acu-Link.com,2013-11-22 18:40:00,
2013-11-22 10:55:00,33.6,29.6,23.75,North,-999,-999.0,-999.0,85,-99.99,,,-99.99,Acu-Link.com,2013-11-22 18:55:00,
2013-11-22 11:10:00,33.8,30.1,23.75,North,-999,-999.0,-999.0,86,-99.99,,,-99.99,Acu-Link.com,2013-11-22 19:10:00,
2013-11-22 11:26:00,35.2,-56.1,23.76,SW,225,0.0,-999.0,1,-99.99,,,0.02,Acu-Link.com,2013-11-22 19:26:00,
2013-11-22 11:41:00,34.9,-56.3,23.75,South,180,3.2,-999.0,1,-99.99,,,0.02,Acu-Link.com,2013-11-22 19:41:00,
2013-11-22 11:56:00,35.1,-56.1,23.74,SW,225,1.1,-999.0,1,-99.99,,,0.02,Acu-Link.com,2013-11-22 19:56:00,
2013-11-22 12:11:00,34.2,33.4,23.74,SW,225,0.0,-999.0,97,-99.99,,,0.02,Acu-Link.com,2013-11-22 20:11:00,
2013-11-22 12:26:00,34.7,34.2,23.73,South,180,0.0,-999.0,98,-99.99,,,0.02,Acu-Link.com,2013-11-22 20:26:00,
2013-11-22 12:41:00,34.5,34.0,23.74,SSW,202,0.0,-999.0,98,-99.99,,,0.02,Acu-Link.com,2013-11-22 20:41:00,
2013-11-22 12:56:00,34.3,33.8,23.74,South,180,0.0,-999.0,98,-99.99,,,0.02,Acu-Link.com,2013-11-22 20:56:00,
2013-11-22 13:11:00,34.7,34.2,23.74,South,180,0.0,-999.0,98,-99.99,,,0.02,Acu-Link.com,2013-11-22 21:11:00,
2013-11-22 13:26:00,34.3,33.8,23.74,SSW,202,0.0,-999.0,98,-99.99,,,0.02,Acu-Link.com,2013-11-22 21:26:00,
2013-11-22 13:42:00,34.3,33.8,23.73,South,180,0.0,-999.0,98,-99.99,,,0.02,Acu-Link.com,2013-11-22 21:42:00,
2013-11-22 13:57:00,33.8,33.3,23.73,SW,225,0.0,-999.0,98,-99.99,,,0.02,Acu-Link.com,2013-11-22 21:57:00,
2013-11-22 14:12:00,33.8,33.3,23.74,SSW,202,0.0,-999.0,98,-99.99,,,0.02,Acu-Link.com,2013-11-22 22:12:00,
2013-11-22 14:27:00,33.4,32.9,23.73,South,180,0.0,-999.0,98,-99.99,,,0.02,Acu-Link.com,2013-11-22 22:27:00,
2013-11-22 14:42:00,33.4,32.9,23.74,ESE,112,0.0,-999.0,98,-99.99,,,0.02,Acu-Link.com,2013-11-22 22:42:00,
2013-11-22 14:57:00,33.4,32.9,23.73,SE,135,0.0,-999.0,98,-99.99,,,0.02,Acu-Link.com,2013-11-22 22:57:00,
2013-11-22 15:13:00,33.6,33.1,23.73,SSW,202,0.0,-999.0,98,-99.99,,,0.02,Acu-Link.com,2013-11-22 23:13:00,
2013-11-22 15:28:00,33.4,32.9,23.73,WSW,247,0.0,-999.0,98,-99.99,,,0.02,Acu-Link.com,2013-11-22 23:28:00,
2013-11-22 15:43:00,33.3,32.8,23.73,SSW,202,0.0,-999.0,98,-99.99,,,0.02,Acu-Link.com,2013-11-22 23:43:00,
2013-11-22 15:58:00,33.4,32.9,23.73,SSE,157,0.0,-999.0,98,-99.99,,,0.02,Acu-Link.com,2013-11-22 23:58:00,
2013-11-22 16:13:00,33.6,33.1,23.75,SW,225,0.0,-999.0,98,-99.99,,,0.02,Acu-Link.com,2013-11-23 00:13:00,
2013-11-22 16:28:00,33.6,33.1,23.74,SE,135,0.0,-999.0,98,-99.99,,,0.02,Acu-Link.com,2013-11-23 00:28:00,
2013-11-22 16:43:00,33.6,33.1,23.74,WSW,247,0.0,-999.0,98,-99.99,,,0.02,Acu-Link.com,2013-11-23 00:43:00,
2013-11-22 16:58:00,33.6,33.1,23.74,South,180,0.0,-999.0,98,-99.99,,,0.02,Acu-Link.com,2013-11-23 00:58:00,
2013-11-22 17:14:00,33.6,33.1,23.75,SSW,202,0.0,-999.0,98,-99.99,,,0.02,Acu-Link.com,2013-11-23 01:14:00,
2013-11-22 17:29:00,33.6,33.1,23.75,SW,225,0.0,-999.0,98,-99.99,,,0.02,Acu-Link.com,2013-11-23 01:29:00,
2013-11-22 17:44:00,33.8,33.3,23.76,WSW,247,0.0,-999.0,98,-99.99,,,0.02,Acu-Link.com,2013-11-23 01:44:00,
2013-11-22 17:59:00,33.8,33.3,23.76,SSE,157,0.0,-999.0,98,-99.99,,,0.02,Acu-Link.com,2013-11-23 01:59:00,
2013-11-22 18:14:00,33.8,33.3,23.75,South,180,0.0,-999.0,98,-99.99,,,0.02,Acu-Link.com,2013-11-23 02:14:00,
2013-11-22 18:29:00,33.8,33.3,23.76,ENE,67,0.0,-999.0,98,-99.99,,,0.02,Acu-Link.com,2013-11-23 02:29:00,
2013-11-22 18:44:00,33.6,-57.1,23.76,SSW,202,0.0,-999.0,1,-99.99,,,0.02,Acu-Link.com,2013-11-23 02:44:00,
2013-11-22 18:59:00,33.6,-57.1,23.77,SW,225,0.0,-999.0,1,-99.99,,,0.02,Acu-Link.com,2013-11-23 02:59:00,
2013-11-22 19:14:00,33.8,-56.9,23.77,SSE,157,0.0,-999.0,1,-99.99,,,0.02,Acu-Link.com,2013-11-23 03:14:00,
2013-11-22 19:30:00,33.8,-56.9,23.76,SSW,202,0.0,-999.0,1,-99.99,,,0.02,Acu-Link.com,2013-11-23 03:30:00,
2013-11-22 19:45:00,34.0,-56.8,23.77,SSW,202,0.0,-999.0,1,-99.99,,,0.02,Acu-Link.com,2013-11-23 03:45:00,
2013-11-22 20:00:00,34.2,-56.7,23.77,ESE,112,0.0,-999.0,1,-99.99,,,0.02,Acu-Link.com,2013-11-23 04:00:00,
2013-11-22 20:15:00,34.2,-56.7,23.77,SSW,202,0.0,-999.0,1,-99.99,,,0.02,Acu-Link.com,2013-11-23 04:15:00,
2013-11-22 20:30:00,34.2,-56.7,23.78,ESE,112,0.0,-999.0,1,-99.99,,,0.02,Acu-Link.com,2013-11-23 04:30:00,
2013-11-22 20:46:00,34.3,-56.6,23.78,ESE,112,0.0,-999.0,1,-99.99,,,0.02,Acu-Link.com,2013-11-23 04:46:00,
2013-11-22 21:01:00,34.3,-56.6,23.78,SW,225,0.0,-999.0,1,-99.99,,,0.02,Acu-Link.com,2013-11-23 05:01:00,
2013-11-22 21:16:00,34.5,-56.5,23.78,SW,225,0.0,-999.0,1,-99.99,,,0.02,Acu-Link.com,2013-11-23 05:16:00,
2013-11-22 21:31:00,34.5,-56.5,23.79,SSE,157,0.0,-999.0,1,-99.99,,,0.02,Acu-Link.com,2013-11-23 05:31:00,
2013-11-22 21:46:00,34.5,-56.5,23.78,SE,135,0.0,-999.0,1,-99.99,,,0.02,Acu-Link.com,2013-11-23 05:46:00,
2013-11-22 22:01:00,34.7,-56.4,23.79,SSW,202,0.0,-999.0,1,-99.99,,,0.02,Acu-Link.com,2013-11-23 06:01:00,
2013-11-22 22:16:00,34.7,-56.4,23.79,SSW,202,0.0,-999.0,1,-99.99,,,0.02,Acu-Link.com,2013-11-23 06:16:00,
2013-11-22 22:32:00,34.7,-56.4,23.78,SSW,202,0.0,-999.0,1,-99.99,,,0.02,Acu-Link.com,2013-11-23 06:32:00,
2013-11-22 22:47:00,34.9,-56.3,23.79,South,180,0.0,-999.0,1,-99.99,,,0.02,Acu-Link.com,2013-11-23 06:47:00,
2013-11-22 23:02:00,34.9,-56.3,23.78,SSW,202,0.0,-999.0,1,-99.99,,,0.02,Acu-Link.com,2013-11-23 07:02:00,
2013-11-22 23:17:00,34.9,-56.3,23.79,SSE,157,0.0,-999.0,1,-99.99,,,0.02,Acu-Link.com,2013-11-23 07:17:00,
2013-11-22 23:32:00,34.9,-56.3,23.79,SW,225,0.0,-999.0,1,-99.99,,,0.02,Acu-Link.com,2013-11-23 07:32:00,
2013-11-22 23:47:00,35.1,-56.1,23.79,NW,315,0.0,-999.0,1,-99.99,,,0.02,Acu-Link.com,2013-11-23 07:47:00,